#datetime,building,power
2022-09-25T00:00:00,pth,2.40
2022-09-25T00:02:00,pth,2.40
2022-09-25T00:04:00,pth,2.40
2022-09-25T00:06:00,pth,2.40
2022-09-25T00:08:00,pth,2.40
2022-09-25T00:09:00,pth,1.20
2022-09-25T00:11:00,pth,3.60
2022-09-25T00:13:00,pth,2.40
2022-09-25T00:15:00,pth,2.40
2022-09-25T00:17:00,pth,2.40
2022-09-25T00:19:00,pth,2.40
2022-09-25T00:21:00,pth,3.60
2022-09-25T00:23:00,pth,8.40
2022-09-25T00:25:00,pth,14.40
2022-09-25T00:26:00,pth,7.20
2022-09-25T00:28:00,pth,13.20
2022-09-25T00:30:00,pth,7.20
2022-09-25T00:32:00,pth,13.20
2022-09-25T00:33:00,pth,6.00
2022-09-25T00:35:00,pth,14.40
2022-09-25T00:37:00,pth,13.20
2022-09-25T00:39:00,pth,14.40
2022-09-25T00:40:00,pth,6.00
2022-09-25T00:42:00,pth,14.40
2022-09-25T00:44:00,pth,13.20
2022-09-25T00:45:00,pth,7.20
2022-09-25T00:47:00,pth,13.20
2022-09-25T00:48:00,pth,6.00
2022-09-25T00:50:00,pth,8.40
2022-09-25T00:51:00,pth,7.20
2022-09-25T00:52:00,pth,7.20
2022-09-25T00:54:00,pth,9.60
2022-09-25T00:55:00,pth,6.00
2022-09-25T00:57:00,pth,10.80
2022-09-25T00:58:00,pth,2.40
2022-09-25T01:00:00,pth,13.20
2022-09-25T01:02:00,pth,6.00
2022-09-25T01:04:00,pth,9.60
2022-09-25T01:06:00,pth,2.40
2022-09-25T01:08:00,pth,2.40
2022-09-25T01:10:00,pth,2.40
2022-09-25T01:12:00,pth,8.40
2022-09-25T01:13:00,pth,7.20
2022-09-25T01:15:00,pth,13.20
2022-09-25T01:17:00,pth,9.60
2022-09-25T01:18:00,pth,6.00
2022-09-25T01:19:00,pth,7.20
2022-09-25T01:21:00,pth,8.40
2022-09-25T01:23:00,pth,12.00
2022-09-25T01:25:00,pth,8.40
2022-09-25T01:27:00,pth,7.20
2022-09-25T01:29:00,pth,12.00
2022-09-25T01:30:00,pth,2.40
2022-09-25T01:32:00,pth,10.80
2022-09-25T01:33:00,pth,10.80
2022-09-25T01:34:00,pth,9.60
2022-09-25T01:36:00,pth,6.00
2022-09-25T01:38:00,pth,12.00
2022-09-25T01:40:00,pth,8.40
2022-09-25T01:42:00,pth,6.00
2022-09-25T01:43:00,pth,7.20
2022-09-25T01:45:00,pth,7.20
2022-09-25T01:47:00,pth,12.00
2022-09-25T01:49:00,pth,2.40
2022-09-25T01:51:00,pth,3.60
2022-09-25T01:53:00,pth,2.40
2022-09-25T01:55:00,pth,2.40
2022-09-25T01:57:00,pth,2.40
2022-09-25T01:59:00,pth,2.40
2022-09-25T02:00:00,pth,1.20
2022-09-25T02:02:00,pth,2.40
2022-09-25T02:04:00,pth,2.40
2022-09-25T02:05:00,pth,1.20
2022-09-25T02:07:00,pth,1.20
2022-09-25T02:09:00,pth,2.40
2022-09-25T02:11:00,pth,2.40
2022-09-25T02:13:00,pth,2.40
2022-09-25T02:14:00,pth,1.20
2022-09-25T02:16:00,pth,2.40
2022-09-25T02:18:00,pth,2.40
2022-09-25T02:19:00,pth,1.20
2022-09-25T02:21:00,pth,2.40
2022-09-25T02:23:00,pth,3.60
2022-09-25T02:25:00,pth,2.40
2022-09-25T02:27:00,pth,1.20
2022-09-25T02:29:00,pth,2.40
2022-09-25T02:31:00,pth,2.40
2022-09-25T02:33:00,pth,2.40
2022-09-25T02:34:00,pth,1.20
2022-09-25T02:36:00,pth,2.40
2022-09-25T02:38:00,pth,2.40
2022-09-25T02:40:00,pth,2.40
2022-09-25T02:41:00,pth,1.20
2022-09-25T02:43:00,pth,2.40
2022-09-25T02:45:00,pth,3.60
2022-09-25T02:47:00,pth,2.40
2022-09-25T02:48:00,pth,1.20
2022-09-25T02:49:00,pth,1.20
2022-09-25T02:51:00,pth,2.40
2022-09-25T02:53:00,pth,2.40
2022-09-25T02:54:00,pth,1.20
2022-09-25T02:56:00,pth,2.40
2022-09-25T02:58:00,pth,2.40
2022-09-25T02:59:00,pth,1.20
2022-09-25T03:00:00,pth,1.20
2022-09-25T03:02:00,pth,2.40
2022-09-25T03:03:00,pth,1.20
2022-09-25T03:05:00,pth,2.40
2022-09-25T03:07:00,pth,2.40
2022-09-25T03:08:00,pth,1.20
2022-09-25T03:10:00,pth,2.40
2022-09-25T03:12:00,pth,1.20
2022-09-25T03:13:00,pth,1.20
2022-09-25T03:15:00,pth,2.40
2022-09-25T03:17:00,pth,2.40
2022-09-25T03:18:00,pth,1.20
2022-09-25T03:20:00,pth,2.40
2022-09-25T03:22:00,pth,2.40
2022-09-25T03:24:00,pth,2.40
2022-09-25T03:26:00,pth,2.40
2022-09-25T03:28:00,pth,2.40
2022-09-25T03:30:00,pth,2.40
2022-09-25T03:32:00,pth,2.40
2022-09-25T03:34:00,pth,2.40
2022-09-25T03:36:00,pth,2.40
2022-09-25T03:38:00,pth,1.20
2022-09-25T03:40:00,pth,2.40
2022-09-25T03:41:00,pth,1.20
2022-09-25T03:43:00,pth,2.40
2022-09-25T03:45:00,pth,2.40
2022-09-25T03:47:00,pth,2.40
2022-09-25T03:49:00,pth,2.40
2022-09-25T03:51:00,pth,2.40
2022-09-25T03:53:00,pth,2.40
2022-09-25T03:55:00,pth,1.20
2022-09-25T03:57:00,pth,2.40
2022-09-25T03:59:00,pth,2.40
2022-09-25T04:01:00,pth,2.40
2022-09-25T04:03:00,pth,2.40
2022-09-25T04:05:00,pth,2.40
2022-09-25T04:07:00,pth,2.40
2022-09-25T04:08:00,pth,1.20
2022-09-25T04:10:00,pth,2.40
2022-09-25T04:12:00,pth,2.40
2022-09-25T04:13:00,pth,1.20
2022-09-25T04:15:00,pth,2.40
2022-09-25T04:16:00,pth,1.20
2022-09-25T04:18:00,pth,2.40
2022-09-25T04:20:00,pth,2.40
2022-09-25T04:22:00,pth,3.60
2022-09-25T04:24:00,pth,2.40
2022-09-25T04:26:00,pth,2.40
2022-09-25T04:28:00,pth,2.40
2022-09-25T04:30:00,pth,2.40
2022-09-25T04:31:00,pth,1.20
2022-09-25T04:33:00,pth,3.60
2022-09-25T04:35:00,pth,2.40
2022-09-25T04:37:00,pth,2.40
2022-09-25T04:39:00,pth,1.20
2022-09-25T04:41:00,pth,2.40
2022-09-25T04:43:00,pth,2.40
2022-09-25T04:45:00,pth,2.40
2022-09-25T04:46:00,pth,1.20
2022-09-25T04:48:00,pth,2.40
2022-09-25T04:50:00,pth,1.20
2022-09-25T04:52:00,pth,2.40
2022-09-25T04:53:00,pth,1.20
2022-09-25T04:55:00,pth,2.40
2022-09-25T04:57:00,pth,2.40
2022-09-25T04:58:00,pth,1.20
2022-09-25T05:00:00,pth,2.40
2022-09-25T05:01:00,pth,1.20
2022-09-25T05:02:00,pth,1.20
2022-09-25T05:04:00,pth,2.40
2022-09-25T05:06:00,pth,2.40
2022-09-25T05:08:00,pth,2.40
2022-09-25T05:09:00,pth,1.20
2022-09-25T05:11:00,pth,2.40
2022-09-25T05:12:00,pth,1.20
2022-09-25T05:14:00,pth,2.40
2022-09-25T05:16:00,pth,2.40
2022-09-25T05:18:00,pth,2.40
2022-09-25T05:20:00,pth,2.40
2022-09-25T05:22:00,pth,1.20
2022-09-25T05:23:00,pth,1.20
2022-09-25T05:24:00,pth,1.20
2022-09-25T05:26:00,pth,2.40
2022-09-25T05:27:00,pth,1.20
2022-09-25T05:29:00,pth,2.40
2022-09-25T05:31:00,pth,2.40
2022-09-25T05:33:00,pth,1.20
2022-09-25T05:35:00,pth,2.40
2022-09-25T05:36:00,pth,1.20
2022-09-25T05:38:00,pth,2.40
2022-09-25T05:40:00,pth,2.40
2022-09-25T05:42:00,pth,1.20
2022-09-25T05:44:00,pth,2.40
2022-09-25T05:45:00,pth,1.20
2022-09-25T05:47:00,pth,2.40
2022-09-25T05:48:00,pth,1.20
2022-09-25T05:50:00,pth,2.40
2022-09-25T05:52:00,pth,2.40
2022-09-25T05:54:00,pth,2.40
2022-09-25T05:56:00,pth,2.40
2022-09-25T05:57:00,pth,1.20
2022-09-25T05:59:00,pth,2.40
2022-09-25T06:01:00,pth,2.40
2022-09-25T06:02:00,pth,1.20
2022-09-25T06:04:00,pth,2.40
2022-09-25T06:05:00,pth,1.20
2022-09-25T06:07:00,pth,2.40
2022-09-25T06:08:00,pth,1.20
2022-09-25T06:10:00,pth,2.40
2022-09-25T06:11:00,pth,1.20
2022-09-25T06:13:00,pth,2.40
2022-09-25T06:15:00,pth,2.40
2022-09-25T06:17:00,pth,2.40
2022-09-25T06:18:00,pth,1.20
2022-09-25T06:20:00,pth,2.40
2022-09-25T06:23:00,pth,2.40
2022-09-25T06:24:00,pth,1.20
2022-09-25T06:26:00,pth,2.40
2022-09-25T06:28:00,pth,2.40
2022-09-25T06:29:00,pth,1.20
2022-09-25T06:31:00,pth,2.40
2022-09-25T06:33:00,pth,2.40
2022-09-25T06:35:00,pth,2.40
2022-09-25T06:38:00,pth,2.40
2022-09-25T06:40:00,pth,2.40
2022-09-25T06:42:00,pth,2.40
2022-09-25T06:44:00,pth,2.40
2022-09-25T06:46:00,pth,2.40
2022-09-25T06:48:00,pth,2.40
2022-09-25T06:50:00,pth,2.40
2022-09-25T06:52:00,pth,2.40
2022-09-25T06:54:00,pth,2.40
2022-09-25T06:56:00,pth,2.40
2022-09-25T06:58:00,pth,1.20
2022-09-25T07:00:00,pth,2.40
2022-09-25T07:02:00,pth,2.40
2022-09-25T07:03:00,pth,1.20
2022-09-25T07:05:00,pth,2.40
2022-09-25T07:07:00,pth,1.20
2022-09-25T07:09:00,pth,2.40
2022-09-25T07:11:00,pth,2.40
2022-09-25T07:13:00,pth,2.40
2022-09-25T07:15:00,pth,1.20
2022-09-25T07:17:00,pth,2.40
2022-09-25T07:19:00,pth,2.40
2022-09-25T07:21:00,pth,2.40
2022-09-25T07:23:00,pth,1.20
2022-09-25T07:25:00,pth,2.40
2022-09-25T07:27:00,pth,1.20
2022-09-25T07:29:00,pth,1.20
2022-09-25T07:31:00,pth,2.40
2022-09-25T07:32:00,pth,1.20
2022-09-25T07:34:00,pth,1.20
2022-09-25T07:35:00,pth,1.20
2022-09-25T07:37:00,pth,2.40
2022-09-25T07:39:00,pth,1.20
2022-09-25T07:41:00,pth,2.40
2022-09-25T07:42:00,pth,1.20
2022-09-25T07:44:00,pth,1.20
2022-09-25T07:46:00,pth,2.40
2022-09-25T07:48:00,pth,1.20
2022-09-25T07:50:00,pth,2.40
2022-09-25T07:52:00,pth,2.40
2022-09-25T07:54:00,pth,2.40
2022-09-25T07:57:00,pth,2.40
2022-09-25T07:59:00,pth,1.20
2022-09-25T08:00:00,pth,1.20
2022-09-25T08:02:00,pth,2.40
2022-09-25T08:04:00,pth,1.20
2022-09-25T08:05:00,pth,1.20
2022-09-25T08:07:00,pth,2.40
2022-09-25T08:10:00,pth,2.40
2022-09-25T08:12:00,pth,1.20
2022-09-25T08:14:00,pth,2.40
2022-09-25T08:16:00,pth,1.20
2022-09-25T08:18:00,pth,1.20
2022-09-25T08:20:00,pth,2.40
2022-09-25T08:22:00,pth,1.20
2022-09-25T08:24:00,pth,2.40
2022-09-25T08:26:00,pth,2.40
2022-09-25T08:28:00,pth,1.20
2022-09-25T08:29:00,pth,1.20
2022-09-25T08:31:00,pth,2.40
2022-09-25T08:33:00,pth,1.20
2022-09-25T08:35:00,pth,1.20
2022-09-25T08:37:00,pth,2.40
2022-09-25T08:39:00,pth,1.20
2022-09-25T08:41:00,pth,1.20
2022-09-25T08:43:00,pth,2.40
2022-09-25T08:46:00,pth,2.40
2022-09-25T08:47:00,pth,1.20
2022-09-25T08:49:00,pth,2.40
2022-09-25T08:51:00,pth,1.20
2022-09-25T08:53:00,pth,2.40
2022-09-25T08:56:00,pth,2.40
2022-09-25T08:58:00,pth,2.40
2022-09-25T09:00:00,pth,1.20
2022-09-25T09:02:00,pth,2.40
2022-09-25T09:03:00,pth,1.20
2022-09-25T09:05:00,pth,1.20
2022-09-25T09:07:00,pth,2.40
2022-09-25T09:09:00,pth,1.20
2022-09-25T09:11:00,pth,2.40
2022-09-25T09:12:00,pth,1.20
2022-09-25T09:13:00,pth,1.20
2022-09-25T09:15:00,pth,1.20
2022-09-25T09:16:00,pth,2.40
2022-09-25T09:18:00,pth,3.60
2022-09-25T09:20:00,pth,2.40
2022-09-25T09:22:00,pth,3.60
2022-09-25T09:24:00,pth,3.60
2022-09-25T09:25:00,pth,1.20
2022-09-25T09:27:00,pth,2.40
2022-09-25T09:30:00,pth,4.80
2022-09-25T09:31:00,pth,1.20
2022-09-25T09:33:00,pth,2.40
2022-09-25T09:35:00,pth,3.60
2022-09-25T09:37:00,pth,2.40
2022-09-25T09:39:00,pth,3.60
2022-09-25T09:41:00,pth,2.40
2022-09-25T09:43:00,pth,3.60
2022-09-25T09:45:00,pth,2.40
2022-09-25T09:46:00,pth,2.40
2022-09-25T09:48:00,pth,2.40
2022-09-25T09:49:00,pth,2.40
2022-09-25T09:50:00,pth,1.20
2022-09-25T09:52:00,pth,2.40
2022-09-25T09:54:00,pth,3.60
2022-09-25T09:56:00,pth,3.60
2022-09-25T09:58:00,pth,3.60
2022-09-25T10:00:00,pth,3.60
2022-09-25T10:01:00,pth,1.20
2022-09-25T10:03:00,pth,3.60
2022-09-25T10:05:00,pth,3.60
2022-09-25T10:07:00,pth,2.40
2022-09-25T10:09:00,pth,3.60
2022-09-25T10:11:00,pth,2.40
2022-09-25T10:13:00,pth,2.40
2022-09-25T10:15:00,pth,3.60
2022-09-25T10:17:00,pth,2.40
2022-09-25T10:19:00,pth,2.40
2022-09-25T10:20:00,pth,2.40
2022-09-25T10:22:00,pth,2.40
2022-09-25T10:23:00,pth,1.20
2022-09-25T10:25:00,pth,3.60
2022-09-25T10:28:00,pth,2.40
2022-09-25T10:30:00,pth,1.20
2022-09-25T10:32:00,pth,1.20
2022-09-25T10:34:00,pth,1.20
2022-09-25T10:37:00,pth,1.20
2022-09-25T10:40:00,pth,3.60
2022-09-25T10:42:00,pth,1.20
2022-09-25T10:43:00,pth,1.20
2022-09-25T10:45:00,pth,2.40
2022-09-25T10:46:00,pth,1.20
2022-09-25T10:48:00,pth,1.20
2022-09-25T10:50:00,pth,2.40
2022-09-25T10:52:00,pth,2.40
2022-09-25T10:54:00,pth,2.40
2022-09-25T10:56:00,pth,1.20
2022-09-25T10:58:00,pth,1.20
2022-09-25T11:00:00,pth,2.40
2022-09-25T11:02:00,pth,1.20
2022-09-25T11:04:00,pth,1.20
2022-09-25T11:06:00,pth,2.40
2022-09-25T11:08:00,pth,1.20
2022-09-25T11:10:00,pth,2.40
2022-09-25T11:11:00,pth,1.20
2022-09-25T11:13:00,pth,2.40
2022-09-25T11:15:00,pth,1.20
2022-09-25T11:17:00,pth,2.40
2022-09-25T11:20:00,pth,2.40
2022-09-25T11:22:00,pth,1.20
2022-09-25T11:23:00,pth,1.20
2022-09-25T11:25:00,pth,1.20
2022-09-25T11:26:00,pth,1.20
2022-09-25T11:28:00,pth,1.20
2022-09-25T11:29:00,pth,1.20
2022-09-25T11:31:00,pth,2.40
2022-09-25T11:34:00,pth,2.40
2022-09-25T11:35:00,pth,1.20
2022-09-25T11:37:00,pth,1.20
2022-09-25T11:38:00,pth,1.20
2022-09-25T11:40:00,pth,1.20
2022-09-25T11:41:00,pth,1.20
2022-09-25T11:43:00,pth,1.20
2022-09-25T11:44:00,pth,1.20
2022-09-25T11:46:00,pth,1.20
2022-09-25T11:47:00,pth,1.20
2022-09-25T11:48:00,pth,1.20
2022-09-25T11:50:00,pth,1.20
2022-09-25T11:53:00,pth,1.20
2022-09-25T11:55:00,pth,2.40
2022-09-25T11:57:00,pth,1.20
2022-09-25T11:59:00,pth,1.20
2022-09-25T12:01:00,pth,2.40
2022-09-25T12:03:00,pth,2.40
2022-09-25T12:05:00,pth,3.60
2022-09-25T12:07:00,pth,2.40
2022-09-25T12:09:00,pth,2.40
2022-09-25T12:11:00,pth,3.60
2022-09-25T12:12:00,pth,1.20
2022-09-25T12:14:00,pth,2.40
2022-09-25T12:16:00,pth,3.60
2022-09-25T12:18:00,pth,3.60
2022-09-25T12:19:00,pth,1.20
2022-09-25T12:21:00,pth,3.60
2022-09-25T12:23:00,pth,3.60
2022-09-25T12:25:00,pth,3.60
2022-09-25T12:27:00,pth,2.40
2022-09-25T12:29:00,pth,3.60
2022-09-25T12:31:00,pth,2.40
2022-09-25T12:33:00,pth,2.40
2022-09-25T12:35:00,pth,2.40
2022-09-25T12:36:00,pth,2.40
2022-09-25T12:37:00,pth,1.20
2022-09-25T12:38:00,pth,1.20
2022-09-25T12:40:00,pth,2.40
2022-09-25T12:41:00,pth,1.20
2022-09-25T12:43:00,pth,1.20
2022-09-25T12:45:00,pth,2.40
2022-09-25T12:46:00,pth,1.20
2022-09-25T12:49:00,pth,2.40
2022-09-25T12:50:00,pth,2.40
2022-09-25T12:52:00,pth,3.60
2022-09-25T12:54:00,pth,4.80
2022-09-25T12:55:00,pth,2.40
2022-09-25T12:57:00,pth,4.80
2022-09-25T12:59:00,pth,6.00
2022-09-25T13:01:00,pth,3.60
2022-09-25T13:03:00,pth,3.60
2022-09-25T13:05:00,pth,3.60
2022-09-25T13:07:00,pth,3.60
2022-09-25T13:08:00,pth,1.20
2022-09-25T13:10:00,pth,3.60
2022-09-25T13:11:00,pth,1.20
2022-09-25T13:13:00,pth,2.40
2022-09-25T13:15:00,pth,1.20
2022-09-25T13:17:00,pth,2.40
2022-09-25T13:18:00,pth,1.20
2022-09-25T13:20:00,pth,2.40
2022-09-25T13:22:00,pth,2.40
2022-09-25T13:23:00,pth,1.20
2022-09-25T13:25:00,pth,3.60
2022-09-25T13:26:00,pth,1.20
2022-09-25T13:29:00,pth,2.40
2022-09-25T13:31:00,pth,2.40
2022-09-25T13:33:00,pth,2.40
2022-09-25T13:35:00,pth,2.40
2022-09-25T13:36:00,pth,1.20
2022-09-25T13:38:00,pth,1.20
2022-09-25T13:40:00,pth,2.40
2022-09-25T13:41:00,pth,1.20
2022-09-25T13:43:00,pth,2.40
2022-09-25T13:45:00,pth,2.40
2022-09-25T13:46:00,pth,1.20
2022-09-25T13:48:00,pth,2.40
2022-09-25T13:50:00,pth,10.80
2022-09-25T13:52:00,pth,13.20
2022-09-25T13:53:00,pth,7.20
2022-09-25T13:55:00,pth,13.20
2022-09-25T13:57:00,pth,13.20
2022-09-25T13:59:00,pth,13.20
2022-09-25T14:01:00,pth,15.60
2022-09-25T14:03:00,pth,15.60
2022-09-25T14:05:00,pth,13.20
2022-09-25T14:07:00,pth,13.20
2022-09-25T14:09:00,pth,7.20
2022-09-25T14:11:00,pth,13.20
2022-09-25T14:13:00,pth,6.00
2022-09-25T14:15:00,pth,13.20
2022-09-25T14:17:00,pth,7.20
2022-09-25T14:18:00,pth,6.00
2022-09-25T14:20:00,pth,12.00
2022-09-25T14:21:00,pth,1.20
2022-09-25T14:23:00,pth,12.00
2022-09-25T14:25:00,pth,7.20
2022-09-25T14:26:00,pth,3.60
2022-09-25T14:28:00,pth,13.20
2022-09-25T14:30:00,pth,4.80
2022-09-25T14:32:00,pth,12.00
2022-09-25T14:34:00,pth,6.00
2022-09-25T14:36:00,pth,12.00
2022-09-25T14:37:00,pth,1.20
2022-09-25T14:39:00,pth,9.60
2022-09-25T14:40:00,pth,7.20
2022-09-25T14:42:00,pth,4.80
2022-09-25T14:43:00,pth,6.00
2022-09-25T14:45:00,pth,7.20
2022-09-25T14:47:00,pth,10.80
2022-09-25T14:48:00,pth,2.40
2022-09-25T14:50:00,pth,2.40
2022-09-25T14:52:00,pth,2.40
2022-09-25T14:54:00,pth,1.20
2022-09-25T14:56:00,pth,3.60
2022-09-25T14:58:00,pth,4.80
2022-09-25T15:00:00,pth,4.80
2022-09-25T15:02:00,pth,6.00
2022-09-25T15:04:00,pth,4.80
2022-09-25T15:06:00,pth,4.80
2022-09-25T15:07:00,pth,2.40
2022-09-25T15:09:00,pth,4.80
2022-09-25T15:10:00,pth,1.20
2022-09-25T15:12:00,pth,2.40
2022-09-25T15:14:00,pth,2.40
2022-09-25T15:15:00,pth,1.20
2022-09-25T15:17:00,pth,2.40
2022-09-25T15:19:00,pth,3.60
2022-09-25T15:21:00,pth,2.40
2022-09-25T15:23:00,pth,10.80
2022-09-25T15:24:00,pth,7.20
2022-09-25T15:26:00,pth,13.20
2022-09-25T15:28:00,pth,13.20
2022-09-25T15:30:00,pth,14.40
2022-09-25T15:32:00,pth,13.20
2022-09-25T15:34:00,pth,14.40
2022-09-25T15:35:00,pth,7.20
2022-09-25T15:37:00,pth,13.20
2022-09-25T15:39:00,pth,14.40
2022-09-25T15:41:00,pth,12.00
2022-09-25T15:42:00,pth,1.20
2022-09-25T15:44:00,pth,13.20
2022-09-25T15:46:00,pth,13.20
2022-09-25T15:48:00,pth,10.80
2022-09-25T15:50:00,pth,10.80
2022-09-25T15:51:00,pth,6.00
2022-09-25T15:53:00,pth,13.20
2022-09-25T15:55:00,pth,12.00
2022-09-25T15:57:00,pth,13.20
2022-09-25T15:59:00,pth,12.00
2022-09-25T16:00:00,pth,7.20
2022-09-25T16:01:00,pth,6.00
2022-09-25T16:03:00,pth,12.00
2022-09-25T16:04:00,pth,6.00
2022-09-25T16:06:00,pth,13.20
2022-09-25T16:08:00,pth,9.60
2022-09-25T16:10:00,pth,13.20
2022-09-25T16:12:00,pth,10.80
2022-09-25T16:14:00,pth,13.20
2022-09-25T16:16:00,pth,7.20
2022-09-25T16:18:00,pth,13.20
2022-09-25T16:20:00,pth,12.00
2022-09-25T16:22:00,pth,3.60
2022-09-25T16:24:00,pth,2.40
2022-09-25T16:26:00,pth,1.20
2022-09-25T16:28:00,pth,1.20
2022-09-25T16:30:00,pth,1.20
2022-09-25T16:31:00,pth,1.20
2022-09-25T16:33:00,pth,1.20
2022-09-25T16:35:00,pth,2.40
2022-09-25T16:37:00,pth,2.40
2022-09-25T16:38:00,pth,1.20
2022-09-25T16:40:00,pth,2.40
2022-09-25T16:42:00,pth,2.40
2022-09-25T16:44:00,pth,2.40
2022-09-25T16:46:00,pth,3.60
2022-09-25T16:47:00,pth,1.20
2022-09-25T16:49:00,pth,1.20
2022-09-25T16:51:00,pth,2.40
2022-09-25T16:53:00,pth,4.80
2022-09-25T16:55:00,pth,14.40
2022-09-25T16:57:00,pth,13.20
2022-09-25T16:59:00,pth,13.20
2022-09-25T17:00:00,pth,7.20
2022-09-25T17:02:00,pth,12.00
2022-09-25T17:03:00,pth,7.20
2022-09-25T17:05:00,pth,12.00
2022-09-25T17:07:00,pth,12.00
2022-09-25T17:08:00,pth,7.20
2022-09-25T17:10:00,pth,14.40
2022-09-25T17:12:00,pth,13.20
2022-09-25T17:14:00,pth,12.00
2022-09-25T17:15:00,pth,7.20
2022-09-25T17:17:00,pth,8.40
2022-09-25T17:19:00,pth,12.00
2022-09-25T17:20:00,pth,3.60
2022-09-25T17:22:00,pth,10.80
2022-09-25T17:24:00,pth,8.40
2022-09-25T17:25:00,pth,7.20
2022-09-25T17:27:00,pth,8.40
2022-09-25T17:29:00,pth,12.00
2022-09-25T17:31:00,pth,7.20
2022-09-25T17:33:00,pth,12.00
2022-09-25T17:35:00,pth,8.40
2022-09-25T17:36:00,pth,8.40
2022-09-25T17:38:00,pth,10.80
2022-09-25T17:39:00,pth,8.40
2022-09-25T17:41:00,pth,12.00
2022-09-25T17:42:00,pth,8.40
2022-09-25T17:44:00,pth,7.20
2022-09-25T17:46:00,pth,15.60
2022-09-25T17:48:00,pth,10.80
2022-09-25T17:50:00,pth,12.00
2022-09-25T17:52:00,pth,10.80
2022-09-25T17:53:00,pth,3.60
2022-09-25T17:55:00,pth,7.20
2022-09-25T17:56:00,pth,2.40
2022-09-25T17:58:00,pth,2.40
2022-09-25T17:59:00,pth,1.20
2022-09-25T18:01:00,pth,3.60
2022-09-25T18:03:00,pth,2.40
2022-09-25T18:04:00,pth,1.20
2022-09-25T18:06:00,pth,2.40
2022-09-25T18:08:00,pth,2.40
2022-09-25T18:10:00,pth,2.40
2022-09-25T18:12:00,pth,2.40
2022-09-25T18:13:00,pth,2.40
2022-09-25T18:15:00,pth,2.40
2022-09-25T18:17:00,pth,3.60
2022-09-25T18:19:00,pth,2.40
2022-09-25T18:20:00,pth,1.20
2022-09-25T18:22:00,pth,2.40
2022-09-25T18:23:00,pth,1.20
2022-09-25T18:25:00,pth,2.40
2022-09-25T18:27:00,pth,3.60
2022-09-25T18:28:00,pth,1.20
2022-09-25T18:30:00,pth,2.40
2022-09-25T18:32:00,pth,7.20
2022-09-25T18:34:00,pth,14.40
2022-09-25T18:36:00,pth,13.20
2022-09-25T18:38:00,pth,13.20
2022-09-25T18:40:00,pth,13.20
2022-09-25T18:42:00,pth,14.40
2022-09-25T18:44:00,pth,14.40
2022-09-25T18:45:00,pth,7.20
2022-09-25T18:47:00,pth,15.60
2022-09-25T18:48:00,pth,7.20
2022-09-25T18:50:00,pth,16.80
2022-09-25T18:52:00,pth,16.80
2022-09-25T18:53:00,pth,8.40
2022-09-25T18:55:00,pth,16.80
2022-09-25T18:57:00,pth,15.60
2022-09-25T18:58:00,pth,8.40
2022-09-25T19:00:00,pth,14.40
2022-09-25T19:01:00,pth,7.20
2022-09-25T19:03:00,pth,15.60
2022-09-25T19:05:00,pth,15.60
2022-09-25T19:07:00,pth,15.60
2022-09-25T19:09:00,pth,12.00
2022-09-25T19:10:00,pth,1.20
2022-09-25T19:12:00,pth,13.20
2022-09-25T19:13:00,pth,7.20
2022-09-25T19:15:00,pth,8.40
2022-09-25T19:16:00,pth,2.40
2022-09-25T19:18:00,pth,13.20
2022-09-25T19:19:00,pth,7.20
2022-09-25T19:21:00,pth,4.80
2022-09-25T19:23:00,pth,12.00
2022-09-25T19:25:00,pth,9.60
2022-09-25T19:27:00,pth,8.40
2022-09-25T19:28:00,pth,6.00
2022-09-25T19:30:00,pth,9.60
2022-09-25T19:32:00,pth,2.40
2022-09-25T19:33:00,pth,2.40
2022-09-25T19:35:00,pth,2.40
2022-09-25T19:37:00,pth,3.60
2022-09-25T19:39:00,pth,2.40
2022-09-25T19:40:00,pth,2.40
2022-09-25T19:42:00,pth,2.40
2022-09-25T19:44:00,pth,3.60
2022-09-25T19:46:00,pth,3.60
2022-09-25T19:48:00,pth,4.80
2022-09-25T19:50:00,pth,3.60
2022-09-25T19:52:00,pth,2.40
2022-09-25T19:54:00,pth,2.40
2022-09-25T19:55:00,pth,2.40
2022-09-25T19:57:00,pth,2.40
2022-09-25T19:58:00,pth,1.20
2022-09-25T20:00:00,pth,3.60
2022-09-25T20:02:00,pth,3.60
2022-09-25T20:04:00,pth,2.40
2022-09-25T20:06:00,pth,2.40
2022-09-25T20:08:00,pth,7.20
2022-09-25T20:09:00,pth,7.20
2022-09-25T20:10:00,pth,7.20
2022-09-25T20:12:00,pth,13.20
2022-09-25T20:14:00,pth,12.00
2022-09-25T20:15:00,pth,4.80
2022-09-25T20:17:00,pth,13.20
2022-09-25T20:19:00,pth,12.00
2022-09-25T20:20:00,pth,3.60
2022-09-25T20:22:00,pth,10.80
2022-09-25T20:23:00,pth,7.20
2022-09-25T20:25:00,pth,9.60
2022-09-25T20:26:00,pth,3.60
2022-09-25T20:28:00,pth,8.40
2022-09-25T20:30:00,pth,10.80
2022-09-25T20:32:00,pth,9.60
2022-09-25T20:34:00,pth,9.60
2022-09-25T20:36:00,pth,9.60
2022-09-25T20:38:00,pth,9.60
2022-09-25T20:40:00,pth,8.40
2022-09-25T20:42:00,pth,9.60
2022-09-25T20:43:00,pth,3.60
2022-09-25T20:45:00,pth,8.40
2022-09-25T20:47:00,pth,7.20
2022-09-25T20:49:00,pth,9.60
2022-09-25T20:50:00,pth,6.00
2022-09-25T20:51:00,pth,2.40
2022-09-25T20:53:00,pth,9.60
2022-09-25T20:55:00,pth,8.40
2022-09-25T20:57:00,pth,9.60
2022-09-25T20:58:00,pth,6.00
2022-09-25T21:00:00,pth,9.60
2022-09-25T21:02:00,pth,8.40
2022-09-25T21:03:00,pth,3.60
2022-09-25T21:05:00,pth,7.20
2022-09-25T21:06:00,pth,1.20
2022-09-25T21:08:00,pth,3.60
2022-09-25T21:10:00,pth,3.60
2022-09-25T21:12:00,pth,8.40
2022-09-25T21:14:00,pth,13.20
2022-09-25T21:16:00,pth,14.40
2022-09-25T21:17:00,pth,7.20
2022-09-25T21:18:00,pth,7.20
2022-09-25T21:20:00,pth,13.20
2022-09-25T21:22:00,pth,14.40
2022-09-25T21:24:00,pth,13.20
2022-09-25T21:25:00,pth,7.20
2022-09-25T21:27:00,pth,13.20
2022-09-25T21:29:00,pth,13.20
2022-09-25T21:31:00,pth,14.40
2022-09-25T21:32:00,pth,6.00
2022-09-25T21:34:00,pth,14.40
2022-09-25T21:36:00,pth,13.20
2022-09-25T21:38:00,pth,14.40
2022-09-25T21:40:00,pth,13.20
2022-09-25T21:42:00,pth,14.40
2022-09-25T21:44:00,pth,13.20
2022-09-25T21:46:00,pth,8.40
2022-09-25T21:48:00,pth,13.20
2022-09-25T21:49:00,pth,7.20
2022-09-25T21:51:00,pth,6.00
2022-09-25T21:52:00,pth,6.00
2022-09-25T21:54:00,pth,10.80
2022-09-25T21:56:00,pth,8.40
2022-09-25T21:57:00,pth,6.00
2022-09-25T21:59:00,pth,8.40
2022-09-25T22:01:00,pth,10.80
2022-09-25T22:03:00,pth,9.60
2022-09-25T22:05:00,pth,8.40
2022-09-25T22:07:00,pth,12.00
2022-09-25T22:09:00,pth,6.00
2022-09-25T22:10:00,pth,6.00
2022-09-25T22:12:00,pth,3.60
2022-09-25T22:13:00,pth,1.20
2022-09-25T22:15:00,pth,2.40
2022-09-25T22:16:00,pth,1.20
2022-09-25T22:18:00,pth,2.40
2022-09-25T22:20:00,pth,2.40
2022-09-25T22:22:00,pth,3.60
2022-09-25T22:24:00,pth,2.40
2022-09-25T22:25:00,pth,1.20
2022-09-25T22:26:00,pth,1.20
2022-09-25T22:28:00,pth,2.40
2022-09-25T22:29:00,pth,1.20
2022-09-25T22:31:00,pth,2.40
2022-09-25T22:33:00,pth,3.60
2022-09-25T22:35:00,pth,2.40
2022-09-25T22:37:00,pth,2.40
2022-09-25T22:38:00,pth,2.40
2022-09-25T22:40:00,pth,2.40
2022-09-25T22:42:00,pth,2.40
2022-09-25T22:43:00,pth,1.20
2022-09-25T22:45:00,pth,3.60
2022-09-25T22:47:00,pth,2.40
2022-09-25T22:49:00,pth,3.60
2022-09-25T22:51:00,pth,2.40
2022-09-25T22:53:00,pth,2.40
2022-09-25T22:55:00,pth,3.60
2022-09-25T22:57:00,pth,2.40
2022-09-25T22:59:00,pth,2.40
2022-09-25T23:00:00,pth,1.20
2022-09-25T23:02:00,pth,2.40
2022-09-25T23:03:00,pth,1.20
2022-09-25T23:05:00,pth,3.60
2022-09-25T23:06:00,pth,1.20
2022-09-25T23:07:00,pth,1.20
2022-09-25T23:09:00,pth,2.40
2022-09-25T23:11:00,pth,2.40
2022-09-25T23:13:00,pth,3.60
2022-09-25T23:15:00,pth,3.60
2022-09-25T23:17:00,pth,2.40
2022-09-25T23:19:00,pth,3.60
2022-09-25T23:21:00,pth,3.60
2022-09-25T23:23:00,pth,3.60
2022-09-25T23:25:00,pth,2.40
2022-09-25T23:27:00,pth,3.60
2022-09-25T23:29:00,pth,3.60
2022-09-25T23:31:00,pth,2.40
2022-09-25T23:33:00,pth,3.60
2022-09-25T23:34:00,pth,1.20
2022-09-25T23:36:00,pth,2.40
2022-09-25T23:38:00,pth,3.60
2022-09-25T23:40:00,pth,3.60
2022-09-25T23:42:00,pth,2.40
2022-09-25T23:44:00,pth,2.40
2022-09-25T23:45:00,pth,2.40
2022-09-25T23:47:00,pth,2.40
2022-09-25T23:49:00,pth,2.40
2022-09-25T23:50:00,pth,2.40
2022-09-25T23:52:00,pth,2.40
2022-09-25T23:53:00,pth,1.20
2022-09-25T23:55:00,pth,3.60
2022-09-25T23:57:00,pth,2.40
2022-09-25T23:59:00,pth,2.40
